This is the latest recevied weather packets stored in our database for station/object DO7ZT-13. If no packets are shown the sender has not sent any weather packets the latest 1 day(s).
| Time | Temp. | Humidity | Pressure | Rain* | Wind** | Luminosity | Snow |
|---|---|---|---|---|---|---|---|
| 1777978520 | 21.11° C | 56% | 1008 hPa | 0 mm | 0.45 m/s, 44° | - | - |
| 1777978208 | 21.11° C | 54% | 1008 hPa | 0 mm | 0.89 m/s, 262° | - | - |
| 1777977920 | 21.11° C | 54% | 1008.2 hPa | 0 mm | 0.89 m/s, 313° | - | - |
| 1777977608 | 21.11° C | 54% | 1008.2 hPa | 0 mm | 1.34 m/s, 330° | - | - |
| 1777977320 | 20° C | 56% | 1008.2 hPa | 0 mm | 1.79 m/s, 330° | - | - |
| 1777977008 | 20° C | 57% | 1008.4 hPa | 0 mm | 0.89 m/s, 297° | - | - |
| 1777976408 | 20° C | 56% | 1008.4 hPa | 0 mm | 0.89 m/s, 324° | - | - |
| 1777976120 | 20° C | 59% | 1008.5 hPa | 0 mm | 0.45 m/s, 302° | - | - |
| 1777975808 | 18.89° C | 61% | 1008.5 hPa | 0 mm | 0.45 m/s, 348° | - | - |
| 1777975520 | 20° C | 61% | 1008.5 hPa | 0 mm | 0.89 m/s, 256° | - | - |
| 1777975207 | 20° C | 59% | 1008.6 hPa | 0 mm | 0.45 m/s, 336° | - | - |
| 1777974920 | 20° C | 59% | 1008.6 hPa | 0 mm | 0.89 m/s, 308° | - | - |
| 1777974607 | 20° C | 59% | 1008.6 hPa | 0 mm | 0 m/s | - | - |
| 1777974333 | 18.89° C | 61% | 1008.7 hPa | 0 mm | 0.45 m/s, 252° | - | - |
| 1777974020 | 18.89° C | 64% | 1008.7 hPa | 0 mm | 0.45 m/s, 255° | - | - |
| 1777973708 | 18.89° C | 63% | 1008.7 hPa | 0 mm | 0.45 m/s, 306° | - | - |
| 1777973420 | 18.89° C | 59% | 1008.7 hPa | 0 mm | 0.89 m/s, 306° | - | - |
| 1777973108 | 18.89° C | 58% | 1008.7 hPa | 0 mm | 0.89 m/s, 330° | - | - |
| 1777972820 | 18.89° C | 58% | 1008.7 hPa | 0 mm | 0.89 m/s, 336° | - | - |
| 1777972508 | 18.89° C | 59% | 1008.9 hPa | 0 mm | 0.89 m/s, 307° | - | - |
| 1777972221 | 18.89° C | 58% | 1008.9 hPa | 0 mm | 0.89 m/s, 303° | - | - |
| 1777971908 | 18.89° C | 59% | 1008.9 hPa | 0 mm | 0 m/s | - | - |
| 1777971620 | 18.89° C | 57% | 1008.9 hPa | 0 mm | 0.89 m/s, 257° | - | - |
| 1777971308 | 18.89° C | 59% | 1008.9 hPa | 0 mm | 0.89 m/s, 342° | - | - |
| 1777971020 | 18.89° C | 61% | 1008.9 hPa | 0 mm | 0.89 m/s, 342° | - | - |
* Rain latest hour (hover to see other rain measurements)
** Current wind speed in m/s (hover to see current wind gust speed)